Rochelle, IL

4:00 PM CST on November 11, 2019 (GMT -0600)
Rochelle

Weather History for KRPJ - September, 2019

Change the Weather History Date:

Wednesday, September 25, 2019

  Actual Average (KRFD) Record (KRFD)
Temperature  
Mean Temperature 68 °F -  
Max Temperature 77 °F 70 °F 95 °F (1920)
Min Temperature 60 °F 47 °F 27 °F (1942)
Cooling Degree Days 4    
Growing Degree Days 18 (Base 50)    
Moisture  
Dew Point 58 °F    
Average Humidity 74    
Maximum Humidity 99    
Minimum Humidity 40    
Precipitation  
Precipitation 0.00 in - - ()
Sea Level Pressure  
Sea Level Pressure 29.78 in    
Wind  
Wind Speed 9 mph ()    
Max Wind Speed 18 mph    
Max Gust Speed 23 mph    
Visibility 10.0 miles    
Events Rain    
Averages and records for this station are not official NWS values.
T = Trace of Precipitation, MM = Missing Value Source: Averaged Metar Reports

Daily Weather History Graph

Daily Weather History Graph

Search for Another Location

Airport or City:

Astronomy

Sep. 25, 2019 Rise Set
Actual Time 6:46 AM CDT 6:48 PM CDT
Civil Twilight 6:18 AM CDT 7:16 PM CDT
Nautical Twilight 5:46 AM CDT 7:48 PM CDT
Astronomical Twilight 5:13 AM CDT 8:21 PM CDT
Moon 2:35 AM CDT (9/25) 5:24 PM CDT (9/25)
Length of Visible Light 12h 57m
Length of Day
12h 02m
Waning Crescent, 14% of the Moon is Illuminated
Sep 25
Waning Crescent
Sep 28
New
Oct 5
First Quarter
Oct 13
Full
Oct 21
Last Quarter

Hourly Weather History & Observations

Time (CDT) Temp. Dew Point Humidity Pressure Visibility Wind Dir Wind Speed Gust Speed Precip Events Conditions
12:15 AM 61.7 °F 59.0 °F 91% 29.78 in 10.0 mi South 6.9 mph - N/A   Clear
12:35 AM 61.7 °F 58.6 °F 90% 29.78 in 10.0 mi South 5.8 mph - N/A   Scattered Clouds
12:55 AM 61.9 °F 59.0 °F 90% 29.78 in 10.0 mi SSW 6.9 mph - N/A   Mostly Cloudy
1:15 AM 63.1 °F 58.8 °F 86% 29.77 in 10.0 mi South 5.8 mph - N/A   Overcast
1:35 AM 63.5 °F 58.6 °F 84% 29.77 in 10.0 mi South 8.1 mph - N/A   Overcast
1:55 AM 63.7 °F 58.3 °F 83% 29.78 in 10.0 mi SSW 8.1 mph - N/A   Overcast
2:15 AM 64.4 °F 58.1 °F 80% 29.77 in 10.0 mi SSW 9.2 mph - N/A   Overcast
2:35 AM 64.0 °F 58.1 °F 81% 29.75 in 10.0 mi SSW 8.1 mph - N/A   Overcast
2:55 AM 64.2 °F 58.1 °F 80% 29.73 in 10.0 mi SSW 9.2 mph - N/A   Overcast
3:15 AM 64.4 °F 58.1 °F 80% 29.73 in 10.0 mi SSW 9.2 mph - N/A   Overcast
3:35 AM 63.9 °F 58.1 °F 81% 29.73 in 10.0 mi South 8.1 mph - N/A   Overcast
3:55 AM 63.9 °F 58.1 °F 81% 29.72 in 10.0 mi South 12.7 mph - N/A   Overcast
4:15 AM 64.4 °F 57.9 °F 79% 29.73 in 10.0 mi SSW 9.2 mph 17.3 mph N/A   Overcast
4:35 AM 63.5 °F 59.0 °F 85% 29.72 in 10.0 mi SSW 13.8 mph 17.3 mph N/A Rain Light Rain
4:55 AM 61.3 °F 59.4 °F 93% 29.68 in 10.0 mi South 11.5 mph 18.4 mph N/A Rain Light Rain
5:15 AM 61.2 °F 59.2 °F 93% 29.70 in 10.0 mi SW 9.2 mph - N/A   Clear
5:35 AM 61.2 °F 59.2 °F 93% 29.71 in 10.0 mi SW 10.4 mph 16.1 mph N/A   Clear
5:55 AM 60.8 °F 59.0 °F 94% 29.73 in 10.0 mi SW 6.9 mph - N/A   Clear
6:15 AM 60.8 °F 59.2 °F 94% 29.73 in 10.0 mi SSW 6.9 mph - N/A   Scattered Clouds
6:35 AM 60.8 °F 59.9 °F 97% 29.73 in 10.0 mi SSW 6.9 mph - N/A   Scattered Clouds
6:55 AM 60.6 °F 59.9 °F 97% 29.74 in 10.0 mi SW 6.9 mph - N/A   Scattered Clouds
7:15 AM 61.0 °F 60.8 °F 99% 29.74 in 10.0 mi SW 5.8 mph - N/A   Mostly Cloudy
7:35 AM 61.7 °F 61.0 °F 97% 29.74 in 10.0 mi SW 6.9 mph - N/A   Overcast
7:55 AM 62.1 °F 61.2 °F 97% 29.74 in 10.0 mi SW 8.1 mph - N/A   Overcast
8:15 AM 62.6 °F 61.5 °F 96% 29.74 in 10.0 mi SW 6.9 mph - N/A   Scattered Clouds
8:35 AM 62.8 °F 61.5 °F 96% 29.76 in 10.0 mi WSW 10.4 mph - N/A   Mostly Cloudy
8:55 AM 63.3 °F 61.7 °F 94% 29.76 in 10.0 mi WSW 9.2 mph - N/A   Overcast
9:15 AM 64.8 °F 62.1 °F 91% 29.77 in 10.0 mi WSW 11.5 mph - N/A   Mostly Cloudy
9:35 AM 66.2 °F 63.0 °F 89% 29.77 in 10.0 mi West 13.8 mph 17.3 mph N/A   Mostly Cloudy
9:55 AM 67.6 °F 63.7 °F 87% 29.77 in 10.0 mi WSW 12.7 mph - N/A   Scattered Clouds
10:15 AM 68.5 °F 64.4 °F 87% 29.77 in 10.0 mi WSW 11.5 mph - N/A   Scattered Clouds
10:35 AM 70.0 °F 64.6 °F 83% 29.77 in 10.0 mi West 12.7 mph - N/A   Scattered Clouds
11:00 AM 71.6 °F 64.9 °F 79% 29.77 in 10.0 mi WSW 9.2 mph - N/A   Clear
11:15 AM 72.5 °F 64.8 °F 77% 29.77 in 10.0 mi WSW 10.4 mph - N/A   Clear
11:35 AM 73.4 °F 64.2 °F 73% 29.77 in 10.0 mi West 16.1 mph - N/A   Scattered Clouds
11:55 AM 74.5 °F 63.0 °F 67% 29.77 in 10.0 mi WSW 11.5 mph 18.4 mph N/A   Scattered Clouds
12:15 PM 75.9 °F 61.3 °F 60% 29.78 in 10.0 mi West 17.3 mph 23.0 mph N/A   Scattered Clouds
12:35 PM 75.6 °F 61.0 °F 60% 29.78 in 10.0 mi West 17.3 mph 21.9 mph N/A   Clear
12:55 PM 75.4 °F 60.8 °F 60% 29.77 in 10.0 mi West 12.7 mph - N/A   Scattered Clouds
1:15 PM 75.7 °F 61.2 °F 60% 29.77 in 10.0 mi West 13.8 mph - N/A   Scattered Clouds
1:35 PM 76.1 °F 58.8 °F 55% 29.76 in 10.0 mi West 16.1 mph 20.7 mph N/A   Scattered Clouds
1:55 PM 77.4 °F 53.1 °F 43% 29.76 in 10.0 mi West 13.8 mph - N/A   Clear
2:15 PM 77.4 °F 51.1 °F 40% 29.76 in 10.0 mi WNW 11.5 mph - N/A   Clear
2:35 PM 75.4 °F 50.5 °F 42% 29.76 in 10.0 mi WNW 13.8 mph 20.7 mph N/A   Clear
2:55 PM 77.0 °F 52.7 °F 43% 29.75 in 10.0 mi WNW 11.5 mph - N/A   Clear
3:15 PM 77.0 °F 54.3 °F 45% 29.76 in 10.0 mi WNW 11.5 mph 17.3 mph N/A   Clear
3:35 PM 77.0 °F 54.0 °F 45% 29.76 in 10.0 mi WNW 13.8 mph 17.3 mph N/A   Clear
3:55 PM 75.7 °F 51.8 °F 43% 29.78 in 10.0 mi West 13.8 mph - N/A   Clear
4:15 PM 74.7 °F 53.2 °F 47% 29.78 in 10.0 mi West 18.4 mph - N/A   Clear
4:35 PM 74.7 °F 52.0 °F 45% 29.79 in 10.0 mi West 16.1 mph 20.7 mph N/A   Clear
4:55 PM 74.3 °F 51.3 °F 44% 29.80 in 10.0 mi West 17.3 mph - N/A   Clear
5:15 PM 73.8 °F 51.3 °F 45% 29.80 in 10.0 mi West 13.8 mph - N/A   Clear
5:35 PM 70.7 °F 53.4 °F 54% 29.81 in 10.0 mi West 10.4 mph - N/A   Clear
5:55 PM 69.6 °F 52.7 °F 55% 29.81 in 10.0 mi West 9.2 mph - N/A   Clear
6:15 PM 68.4 °F 52.9 °F 58% 29.81 in 10.0 mi WNW 8.1 mph - N/A   Scattered Clouds
6:35 PM 66.4 °F 53.8 °F 64% 29.82 in 10.0 mi West 6.9 mph - N/A   Mostly Cloudy
7:15 PM 63.1 °F 55.4 °F 76% 29.82 in 10.0 mi West 5.8 mph - N/A   Clear
7:35 PM 63.0 °F 55.8 °F 77% 29.82 in 10.0 mi West 4.6 mph - N/A   Mostly Cloudy
7:55 PM 63.5 °F 55.8 °F 76% 29.84 in 10.0 mi WNW 5.8 mph - N/A   Mostly Cloudy
8:15 PM 63.9 °F 55.8 °F 75% 29.86 in 10.0 mi West 6.9 mph - N/A   Overcast
8:35 PM 62.6 °F 55.6 °F 78% 29.87 in 10.0 mi West 8.1 mph - N/A   Scattered Clouds
8:55 PM 62.6 °F 54.7 °F 75% 29.87 in 10.0 mi West 6.9 mph - N/A   Mostly Cloudy
9:15 PM 62.2 °F 55.0 °F 77% 29.87 in 10.0 mi West 8.1 mph - N/A   Overcast
9:30 PM 62.2 °F 54.9 °F 77% 29.87 in 10.0 mi West 6.9 mph - N/A   Overcast
9:55 PM 62.8 °F 54.5 °F 74% 29.88 in 10.0 mi West 10.4 mph - N/A   Overcast
10:15 PM 63.1 °F 54.0 °F 72% 29.88 in 10.0 mi West 10.4 mph - N/A   Overcast
10:35 PM 63.3 °F 54.0 °F 71% 29.89 in 10.0 mi West 11.5 mph - N/A   Overcast
10:55 PM 63.3 °F 53.6 °F 71% 29.89 in 10.0 mi WNW 10.4 mph - N/A   Overcast
11:15 PM 62.6 °F 53.8 °F 73% 29.89 in 10.0 mi West 10.4 mph - N/A   Overcast
11:35 PM 62.1 °F 54.3 °F 76% 29.89 in 10.0 mi West 8.1 mph - N/A Rain Light Rain
11:55 PM 61.0 °F 54.9 °F 80% 29.89 in 10.0 mi West 9.2 mph - N/A   Mostly Cloudy